Showing default

BD-17, 40549

Orbit data source: Space-Track

BD-17, 40549 is a payload satellite owned by CNSA (CN) that was launched on Mon, 30 Mar 2015 UTC via a CHANG ZHENG 3C/YZ-1 launch vehicle from the Xichang Space Center, China (XSC). Payload-class satellites include a variety of spacecraft equipped with specific instruments for various scientific and technological missions. These include communications satellites like Starlink; space stations such as the ISS; scientific satellites like the Hubble; Earth observation satellites from companies like Planet Labs, Umbra, and HawkEye 360; GPS; miniature CubeSats for education and research; and military/defense satellites.

Not visible in the next 10 days
Identifier
40549, 2015-019A
Orbit
Active
Country
Flag of CNCN / PRC
Related business
Manufacturer
SECM
Mission
Awaiting activation Defense Navigation
Bus & Motor
BD-3I, AKM?
Mass
~1,150 kg wet, ~850 kg dry
Launch date (UTC)
2015-03-30 (11 years ago)
Launch vehicle
CHANG ZHENG 3C/YZ-1
Launch site
Xichang Space Center, China (XSC)
Object type
Payload
Rocket body
Debris
Shape & HBR
Box + 2 Pan, 5.0 m
Radar Cross Section
9.494 m², Large (>1 m²)

Expand to show TLE details & history
Last TLE update: 15 hours ago

TLE from 15 hours ago
0 BD-17
1 40549U 15019A   26253.70909149 -.00000162  00000-0  00000-0 0  9995
2 40549  49.0313 294.4241 0038711 200.3707 205.9134  1.00288273 41931
Epoch: 2026-09-10T17:01Z
TLE epoch observation values (Epoch: 2026-09-10T17:01:05.504Z)
Latitude
32.91751°
Longitude
83.65293°
Altitude
35,931.841 km
Speed
3.064 km/s
True Right ascension
21h 54m 40s
True Declination
32° 53' 28"
Sunlit
Object was in daylight at epoch
Visualization orbit readout
Latitude
Unknown
Longitude
Unknown
Altitude
Unknown
Speed
Unknown
Apparent Right ascension
Unknown
Apparent Declination
Unknown
Sunlit
N/A
Visualization observer readout
Local Sidereal Time
00:10:51
Azimuth
Unknown
Elevation
Unknown
Doppler factor
Unknown
Orbital elements
Apogee altitude
35,945.357 km
Perigee altitude
35,618.944 km
Semi-major axis
42,160.288 km
Eccentricity
0.00387
Inclination
49.0313°
RAAN
294.4241°
Arg. of periapsis
200.3707°
True anomaly
205.72038°
Mean anomaly
205.9134°
Eccentric anomaly
205.81681°
Mean motion
0.25072 °/min
Orbital period
1,435.87 mins
BSTAR
0
Loading maneuver chart data...
Computing Atmospheric mass density...
Loading historical data...
Loading historical data...
Loading historical data...
Loading historical data...
Loading historical data...
Loading historical data...
Loading historical data...
Other satellites on launch #19 in the year 2015 (2015-03-30 UTC)

Documentation

Showing up to 5 results
|